• In Uzbekistan
  • List of Countries
  • For 7 days
  • Water Temperature
  • Satellite Maps
  • Weather Map
  • Weather Widgets
  • user-avatar
    Login

    Hourly Weather Asadabad

    Today, 24 May, Friday

    Time Temperature Precipitation Wind Pressure Humidity
    00:00 +18°C° 0.1 mm 2 mps 656 mmHg 58%
    01:00 +18°C° 0.1 mm 2 mps 656 mmHg 59%
    02:00 +18°C° 0.1 mm 2 mps 656 mmHg 59%
    03:00 +17°C° 0.3 mm 2 mps 655 mmHg 60%
    04:00 +17°C° 0.3 mm 2 mps 655 mmHg 61%
    05:00 +16°C° 0 mm 1 mps 655 mmHg 72%
    06:00 +18°C° 0.2 mm 1 mps 656 mmHg 68%
    07:00 +19°C° 0.2 mm 1 mps 656 mmHg 64%
    08:00 +20°C° 0.2 mm 1 mps 656 mmHg 60%
    09:00 +20°C° 0.7 mm 2 mps 657 mmHg 57%
    10:00 +21°C° 0.7 mm 2 mps 657 mmHg 55%
    11:00 +23°C° 0 mm 2 mps 657 mmHg 55%
    12:00 +23°C° 1.6 mm 2 mps 657 mmHg 55%
    13:00 +23°C° 1.6 mm 2 mps 657 mmHg 54%
    14:00 +23°C° 1.6 mm 2 mps 657 mmHg 54%
    15:00 +23°C° 1.3 mm 2 mps 657 mmHg 54%
    16:00 +23°C° 1.3 mm 2 mps 657 mmHg 55%
    17:00 +21°C° 1.3 mm 2 mps 657 mmHg 56%
    18:00 +21°C° 0.3 mm 2 mps 657 mmHg 58%
    19:00 +20°C° 0.3 mm 2 mps 657 mmHg 60%
    20:00 +19°C° 0.3 mm 2 mps 658 mmHg 62%
    21:00 +19°C° 0 mm 2 mps 658 mmHg 61%
    22:00 +18°C° 0 mm 2 mps 658 mmHg 60%
    23:00 +18°C° 0 mm 2 mps 658 mmHg 60%

    Tomorrow, 25 May, Saturday

    Time Temperature Precipitation Wind Pressure Humidity
    00:00 +18°C° 0 mm 2 mps 657 mmHg 58%
    01:00 +17°C° 0 mm 2 mps 657 mmHg 57%
    02:00 +17°C° 0 mm 2 mps 657 mmHg 55%
    03:00 +17°C° 0 mm 2 mps 657 mmHg 53%
    04:00 +16°C° 0 mm 2 mps 657 mmHg 51%
    05:00 +16°C° 0 mm 2 mps 657 mmHg 49%
    06:00 +18°C° 0 mm 2 mps 657 mmHg 44%
    07:00 +21°C° 0 mm 1 mps 658 mmHg 38%
    08:00 +21°C° 0 mm 0 mps 658 mmHg 33%
    09:00 +24°C° 0 mm 1 mps 658 mmHg 31%
    10:00 +26°C° 0 mm 1 mps 658 mmHg 29%
    11:00 +27°C° 0 mm 2 mps 658 mmHg 27%
    12:00 +28°C° 0 mm 2 mps 658 mmHg 26%
    13:00 +28°C° 0 mm 3 mps 658 mmHg 25%
    14:00 +29°C° 0 mm 3 mps 658 mmHg 24%
    15:00 +29°C° 0 mm 3 mps 657 mmHg 24%
    16:00 +29°C° 0 mm 2 mps 657 mmHg 24%
    17:00 +29°C° 0 mm 2 mps 657 mmHg 23%
    18:00 +27°C° 0 mm 2 mps 657 mmHg 29%
    19:00 +25°C° 0 mm 1 mps 657 mmHg 35%
    20:00 +21°C° 0 mm 0 mps 657 mmHg 41%
    21:00 +23°C° 0 mm 1 mps 657 mmHg 39%
    22:00 +21°C° 0 mm 2 mps 657 mmHg 37%
    23:00 +21°C° 0 mm 3 mps 657 mmHg 35%

    Day after tomorrow, 26 May, Sunday

    Time Temperature Precipitation Wind Pressure Humidity
    00:00 +20°C° 0 mm 3 mps 657 mmHg 34%
    01:00 +19°C° 0 mm 3 mps 657 mmHg 34%
    02:00 +19°C° 0 mm 4 mps 657 mmHg 34%
    03:00 +18°C° 0 mm 4 mps 656 mmHg 33%
    04:00 +18°C° 0 mm 4 mps 656 mmHg 33%
    05:00 +17°C° 0 mm 4 mps 656 mmHg 33%
    06:00 +19°C° 0 mm 3 mps 657 mmHg 30%
    07:00 +21°C° 0 mm 3 mps 657 mmHg 27%
    08:00 +24°C° 0 mm 2 mps 658 mmHg 23%
    09:00 +25°C° 0 mm 2 mps 658 mmHg 21%
    10:00 +26°C° 0 mm 1 mps 658 mmHg 19%
    11:00 +27°C° 0 mm 1 mps 659 mmHg 17%
    12:00 +28°C° 0 mm 1 mps 659 mmHg 17%
    13:00 +29°C° 0 mm 1 mps 659 mmHg 16%
    14:00 +29°C° 0 mm 2 mps 659 mmHg 16%
    15:00 +29°C° 0 mm 2 mps 658 mmHg 16%
    16:00 +29°C° 0 mm 2 mps 658 mmHg 16%
    17:00 +29°C° 0 mm 2 mps 658 mmHg 16%
    18:00 +27°C° 0 mm 2 mps 658 mmHg 20%
    19:00 +26°C° 0 mm 1 mps 658 mmHg 23%
    20:00 +24°C° 0 mm 1 mps 658 mmHg 27%
    21:00 +23°C° 0 mm 2 mps 659 mmHg 27%
    22:00 +21°C° 0 mm 3 mps 659 mmHg 26%
    23:00 +20°C° 0 mm 4 mps 659 mmHg 26%

    27 May, Monday

    Time Temperature Precipitation Wind Pressure Humidity
    00:00 +20°C° 0 mm 4 mps 659 mmHg 26%
    01:00 +19°C° 0 mm 4 mps 658 mmHg 25%
    02:00 +19°C° 0 mm 4 mps 658 mmHg 25%
    03:00 +18°C° 0 mm 4 mps 658 mmHg 25%
    04:00 +18°C° 0 mm 4 mps 658 mmHg 24%
    05:00 +18°C° 0 mm 4 mps 657 mmHg 23%
    06:00 +20°C° 0 mm 3 mps 658 mmHg 21%
    07:00 +23°C° 0 mm 2 mps 658 mmHg 20%
    08:00 +25°C° 0 mm 2 mps 659 mmHg 18%
    09:00 +26°C° 0 mm 1 mps 659 mmHg 16%
    10:00 +27°C° 0 mm 1 mps 659 mmHg 15%
    11:00 +29°C° 0 mm 1 mps 659 mmHg 14%
    12:00 +29°C° 0 mm 2 mps 659 mmHg 14%
    13:00 +30°C° 0 mm 2 mps 659 mmHg 14%
    14:00 +31°C° 0 mm 2 mps 659 mmHg 14%
    15:00 +31°C° 0 mm 2 mps 659 mmHg 14%
    16:00 +31°C° 0 mm 2 mps 658 mmHg 14%
    17:00 +31°C° 0 mm 2 mps 658 mmHg 14%
    18:00 +29°C° 0 mm 1 mps 658 mmHg 19%
    19:00 +26°C° 0 mm 1 mps 658 mmHg 23%
    20:00 +22°C° 0 mm 0 mps 658 mmHg 28%
    21:00 +24°C° 0 mm 1 mps 658 mmHg 26%
    22:00 +23°C° 0 mm 2 mps 658 mmHg 24%
    23:00 +22°C° 0 mm 3 mps 659 mmHg 22%

    28 May, Tuesday

    Time Temperature Precipitation Wind Pressure Humidity
    00:00 +21°C° 0 mm 3 mps 658 mmHg 22%
    01:00 +21°C° 0 mm 4 mps 658 mmHg 22%
    02:00 +20°C° 0 mm 4 mps 657 mmHg 23%
    03:00 +20°C° 0 mm 4 mps 657 mmHg 22%
    04:00 +19°C° 0 mm 4 mps 657 mmHg 22%
    05:00 +19°C° 0 mm 4 mps 657 mmHg 21%
    06:00 +21°C° 0 mm 3 mps 658 mmHg 19%
    07:00 +25°C° 0 mm 2 mps 658 mmHg 17%
    08:00 +27°C° 0 mm 2 mps 659 mmHg 16%
    09:00 +28°C° 0 mm 1 mps 659 mmHg 14%
    10:00 +29°C° 0 mm 1 mps 659 mmHg 13%
    11:00 +30°C° 0 mm 1 mps 659 mmHg 12%
    12:00 +31°C° 0 mm 2 mps 659 mmHg 12%
    13:00 +32°C° 0 mm 2 mps 659 mmHg 12%
    14:00 +32°C° 0 mm 2 mps 658 mmHg 12%
    15:00 +32°C° 0 mm 2 mps 658 mmHg 12%
    16:00 +32°C° 0 mm 2 mps 658 mmHg 12%
    17:00 +32°C° 0 mm 2 mps 658 mmHg 12%
    18:00 +30°C° 0 mm 2 mps 658 mmHg 17%
    19:00 +28°C° 0 mm 1 mps 658 mmHg 22%
    20:00 +24°C° 0 mm 0 mps 658 mmHg 27%
    21:00 +25°C° 0 mm 1 mps 658 mmHg 25%
    22:00 +25°C° 0 mm 2 mps 658 mmHg 23%
    23:00 +24°C° 0 mm 3 mps 658 mmHg 20%

    29 May, Wednesday

    Time Temperature Precipitation Wind Pressure Humidity
    00:00 +24°C° 0 mm 3 mps 658 mmHg 20%
    01:00 +22°C° 0 mm 4 mps 657 mmHg 20%
    02:00 +21°C° 0 mm 4 mps 657 mmHg 20%
    03:00 +21°C° 0 mm 4 mps 657 mmHg 20%
    04:00 +21°C° 0 mm 4 mps 657 mmHg 19%
    05:00 +20°C° 0 mm 4 mps 656 mmHg 19%
    06:00 +24°C° 0 mm 3 mps 657 mmHg 17%
    07:00 +26°C° 0 mm 2 mps 658 mmHg 16%
    08:00 +28°C° 0 mm 2 mps 658 mmHg 14%
    09:00 +29°C° 0 mm 2 mps 658 mmHg 13%
    10:00 +31°C° 0 mm 1 mps 658 mmHg 12%
    11:00 +32°C° 0 mm 1 mps 659 mmHg 11%
    12:00 +32°C° 0 mm 1 mps 658 mmHg 11%
    13:00 +34°C° 0 mm 2 mps 658 mmHg 11%
    14:00 +35°C° 0 mm 2 mps 658 mmHg 11%
    15:00 +34°C° 0 mm 2 mps 658 mmHg 11%
    16:00 +34°C° 0 mm 2 mps 658 mmHg 12%
    17:00 +34°C° 0 mm 2 mps 657 mmHg 12%
    18:00 +31°C° 0 mm 1 mps 657 mmHg 17%
    19:00 +29°C° 0 mm 1 mps 657 mmHg 21%
    20:00 +26°C° 0 mm 1 mps 657 mmHg 26%
    21:00 +26°C° 0 mm 1 mps 657 mmHg 24%
    22:00 +26°C° 0 mm 2 mps 658 mmHg 23%
    23:00 +26°C° 0 mm 3 mps 658 mmHg 21%
    Show more